IGO2516 VEAT-VECC

Flight info

Callsign IGO2516
Flight time 0h 38m
Altitude 26000
Route AAT B593 NOKAT NOKAT2A
Aircraft A20N/M-SDE2E3FGHIRWXY/LB1

Departure

Time 2026-05-05 18:12
Airport Agartala - Maharaja Bir Bikram Airport (VEAT)

Arrival

Time 2026-05-05 18:50
Airport Netaji Subhash Chandra Bose International Airport (VECC)
Time Latitude Longitude Altitude Speed Heading
2026-05-05 17:59 23.88554 91.24341 64 ft 0 kts 93°
2026-05-05 18:04 23.88555 91.24324 55 ft 2 kts 92°
2026-05-05 18:04 23.88555 91.24306 59 ft 2 kts 89°
2026-05-05 18:05 23.88553 91.24288 57 ft 2 kts 45°
2026-05-05 18:05 23.88543 91.24283 57 ft 1 kts
2026-05-05 18:05 23.88542 91.24283 57 ft 0 kts
2026-05-05 18:07 23.88546 91.24283 64 ft 2 kts
2026-05-05 18:07 23.88588 91.24286 59 ft 9 kts
2026-05-05 18:07 23.88660 91.24290 60 ft 11 kts 350°
2026-05-05 18:07 23.88691 91.24222 61 ft 11 kts 277°
2026-05-05 18:08 23.88700 91.24126 60 ft 14 kts 280°
2026-05-05 18:08 23.88779 91.24091 57 ft 14 kts
2026-05-05 18:08 23.88884 91.24099 56 ft 16 kts
2026-05-05 18:08 23.88998 91.24108 61 ft 17 kts
2026-05-05 18:09 23.89116 91.24119 58 ft 17 kts
2026-05-05 18:09 23.89236 91.24129 59 ft 18 kts
2026-05-05 18:09 23.89362 91.24138 62 ft 18 kts
2026-05-05 18:09 23.89494 91.24149 61 ft 20 kts
2026-05-05 18:10 23.89633 91.24155 59 ft 20 kts 348°
2026-05-05 18:10 23.89722 91.24141 64 ft 5 kts 56°
2026-05-05 18:10 23.89715 91.24155 58 ft 3 kts 131°
2026-05-05 18:10 23.89689 91.24163 57 ft 5 kts 177°
2026-05-05 18:11 23.89643 91.24162 62 ft 8 kts 182°
2026-05-05 18:11 23.89502 91.24150 65 ft 49 kts 184°
2026-05-05 18:11 23.88901 91.24101 58 ft 121 kts 184°
2026-05-05 18:11 23.87865 91.24021 93 ft 173 kts 184°
2026-05-05 18:12 23.86642 91.23913 655 ft 180 kts 185°
2026-05-05 18:12 23.85359 91.23782 1334 ft 190 kts 186°
2026-05-05 18:12 23.84013 91.23632 2087 ft 199 kts 186°
2026-05-05 18:12 23.82621 91.23466 2820 ft 204 kts 187°
2026-05-05 18:13 23.81198 91.23279 3578 ft 208 kts 188°
2026-05-05 18:13 23.79751 91.23074 4357 ft 212 kts 188°
2026-05-05 18:13 23.78285 91.22850 5127 ft 214 kts 189°
2026-05-05 18:13 23.76804 91.22608 5908 ft 216 kts 190°
2026-05-05 18:14 23.75319 91.22350 6689 ft 216 kts 191°
2026-05-05 18:14 23.73823 91.22136 7426 ft 219 kts 187°
2026-05-05 18:14 23.72239 91.21998 7854 ft 240 kts 186°
2026-05-05 18:14 23.71100 91.21902 8095 ft 256 kts 186°
2026-05-05 18:15 23.68587 91.21672 8655 ft 285 kts 187°
2026-05-05 18:15 23.67268 91.21543 9103 ft 291 kts 187°
2026-05-05 18:15 23.64549 91.21265 10195 ft 298 kts 187°
2026-05-05 18:15 23.63153 91.21118 10450 ft 312 kts 187°
2026-05-05 18:16 23.60911 91.20878 10724 ft 335 kts 187°
2026-05-05 18:16 23.58539 91.20625 11219 ft 347 kts 187°
2026-05-05 18:16 23.56130 91.20372 12012 ft 349 kts 187°
2026-05-05 18:16 23.53700 91.20116 12770 ft 353 kts 187°
2026-05-05 18:17 23.51240 91.19857 13527 ft 356 kts 187°
2026-05-05 18:17 23.48760 91.19596 14207 ft 360 kts 187°
2026-05-05 18:17 23.46262 91.19334 14870 ft 362 kts 187°
2026-05-05 18:17 23.43738 91.19069 15535 ft 365 kts 187°
2026-05-05 18:18 23.41196 91.18801 16187 ft 369 kts 187°
2026-05-05 18:18 23.38658 91.18424 16814 ft 370 kts 197°
2026-05-05 18:18 23.36307 91.17306 17436 ft 369 kts 215°
2026-05-05 18:18 23.34402 91.15444 18045 ft 370 kts 232°
2026-05-05 18:19 23.33122 91.13020 18604 ft 371 kts 250°
2026-05-05 18:19 23.32594 91.10282 19200 ft 373 kts 266°
2026-05-05 18:19 23.32669 91.07454 19782 ft 375 kts 273°
2026-05-05 18:19 23.32907 91.04624 20351 ft 376 kts 274°
2026-05-05 18:20 23.33129 91.01783 20931 ft 377 kts 272°
2026-05-05 18:20 23.33295 90.98930 21493 ft 379 kts 271°
2026-05-05 18:20 23.33417 90.96063 22049 ft 380 kts 271°
2026-05-05 18:20 23.33515 90.93180 22594 ft 382 kts 270°
2026-05-05 18:21 23.33603 90.90288 23138 ft 384 kts 270°
2026-05-05 18:21 23.33617 90.87380 23620 ft 385 kts 266°
2026-05-05 18:21 23.33343 90.84480 24048 ft 386 kts 260°
2026-05-05 18:21 23.32780 90.81624 24466 ft 387 kts 255°
2026-05-05 18:22 23.31982 90.78815 24881 ft 389 kts 252°
2026-05-05 18:22 23.31173 90.76002 25282 ft 391 kts 253°
2026-05-05 18:22 23.30365 90.73169 25662 ft 393 kts 253°
2026-05-05 18:22 23.29556 90.70328 25816 ft 394 kts 253°
2026-05-05 18:23 23.28744 90.67481 25854 ft 394 kts 253°
2026-05-05 18:23 23.27932 90.64637 25856 ft 393 kts 253°
2026-05-05 18:23 23.27119 90.61795 25853 ft 393 kts 253°
2026-05-05 18:23 23.26307 90.58959 25853 ft 393 kts 253°
2026-05-05 18:24 23.25493 90.56119 25855 ft 393 kts 253°
2026-05-05 18:24 23.24680 90.53286 25853 ft 393 kts 253°
2026-05-05 18:24 23.23866 90.50450 25856 ft 393 kts 253°
2026-05-05 18:24 23.23052 90.47615 25854 ft 393 kts 253°
2026-05-05 18:25 23.22237 90.44782 25851 ft 393 kts 253°
2026-05-05 18:25 23.21699 90.42903 25850 ft 392 kts 253°
2026-05-05 18:25 23.20642 90.39104 25852 ft 393 kts 253°
2026-05-05 18:25 23.19861 90.36263 25852 ft 393 kts 253°
2026-05-05 18:26 23.19077 90.33417 25851 ft 393 kts 253°
2026-05-05 18:26 23.18291 90.30574 25852 ft 393 kts 253°
2026-05-05 18:26 23.17503 90.27733 25850 ft 393 kts 253°
2026-05-05 18:26 23.16714 90.24892 25851 ft 393 kts 253°
2026-05-05 18:27 23.15923 90.22049 25851 ft 393 kts 253°
2026-05-05 18:27 23.15132 90.19208 25852 ft 393 kts 253°
2026-05-05 18:27 23.14339 90.16364 25850 ft 393 kts 253°
2026-05-05 18:27 23.13547 90.13524 25851 ft 393 kts 253°
2026-05-05 18:28 23.11960 90.07842 25852 ft 393 kts 253°
2026-05-05 18:28 23.11167 90.05005 25853 ft 393 kts 253°
2026-05-05 18:28 23.10371 90.02160 25851 ft 393 kts 253°
2026-05-05 18:29 23.09577 89.99321 25852 ft 393 kts 253°
2026-05-05 18:29 23.08780 89.96483 25852 ft 393 kts 253°
2026-05-05 18:29 23.07971 89.93649 25851 ft 393 kts 253°
2026-05-05 18:29 23.07155 89.90813 25850 ft 393 kts 252°
2026-05-05 18:30 23.06350 89.88020 25850 ft 393 kts 252°
2026-05-05 18:30 23.05534 89.85188 25850 ft 393 kts 252°
2026-05-05 18:30 23.04720 89.82359 25849 ft 393 kts 253°
2026-05-05 18:30 23.03906 89.79530 25848 ft 393 kts 252°
2026-05-05 18:31 23.03090 89.76696 25850 ft 393 kts 252°
2026-05-05 18:31 23.02275 89.73869 25852 ft 393 kts 252°
2026-05-05 18:31 23.01463 89.71049 25667 ft 391 kts 252°
2026-05-05 18:31 23.00647 89.68222 25041 ft 394 kts 252°
2026-05-05 18:32 22.99837 89.65415 24096 ft 403 kts 252°
2026-05-05 18:32 22.98991 89.62489 23280 ft 407 kts 252°
2026-05-05 18:32 22.98149 89.59575 22547 ft 404 kts 252°
2026-05-05 18:32 22.97310 89.56677 21831 ft 401 kts 252°
2026-05-05 18:33 22.96477 89.53799 21113 ft 399 kts 252°
2026-05-05 18:33 22.95647 89.50935 20406 ft 397 kts 252°
2026-05-05 18:33 22.94820 89.48085 19723 ft 395 kts 252°
2026-05-05 18:33 22.93997 89.45248 19061 ft 393 kts 252°
2026-05-05 18:34 22.93178 89.42427 18445 ft 390 kts 252°
2026-05-05 18:34 22.92625 89.40522 17973 ft 390 kts 252°
2026-05-05 18:34 22.91814 89.37734 17432 ft 384 kts 252°
2026-05-05 18:34 22.91024 89.35020 17134 ft 372 kts 252°
2026-05-05 18:35 22.90258 89.32390 16878 ft 360 kts 252°
2026-05-05 18:35 22.89507 89.29812 16637 ft 360 kts 252°
2026-05-05 18:35 22.88750 89.27217 16391 ft 362 kts 252°
2026-05-05 18:35 22.87992 89.24616 16146 ft 361 kts 252°
2026-05-05 18:36 22.87241 89.22044 15999 ft 354 kts 252°
2026-05-05 18:36 22.86508 89.19537 15897 ft 342 kts 252°
2026-05-05 18:36 22.85802 89.17126 15771 ft 330 kts 252°
2026-05-05 18:36 22.85115 89.14776 15467 ft 324 kts 252°
2026-05-05 18:37 22.84440 89.12472 15221 ft 317 kts 252°
2026-05-05 18:37 22.83771 89.10185 14986 ft 320 kts 252°
2026-05-05 18:37 22.83095 89.07879 14756 ft 322 kts 252°
2026-05-05 18:37 22.82420 89.05574 14519 ft 320 kts 252°
2026-05-05 18:38 22.81747 89.03279 14273 ft 319 kts 252°
2026-05-05 18:38 22.81072 89.00980 13864 ft 321 kts 252°
2026-05-05 18:38 22.80393 88.98668 13396 ft 322 kts 252°
2026-05-05 18:38 22.79717 88.96367 12956 ft 320 kts 252°
2026-05-05 18:39 22.79050 88.94078 12524 ft 318 kts 254°
2026-05-05 18:39 22.78506 88.91766 12098 ft 315 kts 256°
2026-05-05 18:39 22.77978 88.89465 11668 ft 314 kts 256°
2026-05-05 18:39 22.77452 88.87175 11231 ft 313 kts 256°
2026-05-05 18:40 22.76926 88.84895 10806 ft 312 kts 256°
2026-05-05 18:40 22.76537 88.83215 10490 ft 311 kts 256°
2026-05-05 18:40 22.76068 88.81187 10107 ft 310 kts 256°
2026-05-05 18:41 22.75545 88.78932 9789 ft 305 kts 256°
2026-05-05 18:41 22.75037 88.76746 9566 ft 296 kts 256°
2026-05-05 18:41 22.74537 88.74595 9183 ft 293 kts 256°
2026-05-05 18:41 22.74041 88.72459 8783 ft 291 kts 256°
2026-05-05 18:42 22.73553 88.70340 8377 ft 289 kts 258°
2026-05-05 18:42 22.73538 88.68193 8017 ft 285 kts 284°
2026-05-05 18:42 22.74382 88.66335 7881 ft 279 kts 310°
2026-05-05 18:42 22.75966 88.65055 7858 ft 286 kts 336°
2026-05-05 18:43 22.77872 88.64427 7853 ft 286 kts 343°
2026-05-05 18:43 22.79750 88.63745 7841 ft 284 kts 336°
2026-05-05 18:43 22.81470 88.62763 7619 ft 283 kts 326°
2026-05-05 18:43 22.83036 88.61454 7199 ft 285 kts 316°
2026-05-05 18:44 22.84414 88.59914 6640 ft 286 kts 310°
2026-05-05 18:44 22.85650 88.58167 5641 ft 298 kts 303°
2026-05-05 18:44 22.86754 88.56204 4516 ft 312 kts 297°
2026-05-05 18:44 22.87494 88.53958 3387 ft 322 kts 276°
2026-05-05 18:45 22.87320 88.51584 2740 ft 313 kts 252°
2026-05-05 18:45 22.86338 88.49565 2380 ft 296 kts 231°
2026-05-05 18:45 22.84913 88.48069 2156 ft 277 kts 216°
2026-05-05 18:45 22.83283 88.47122 2024 ft 257 kts 200°
2026-05-05 18:46 22.81614 88.46699 1997 ft 236 kts 189°
2026-05-05 18:46 22.80062 88.46494 1995 ft 214 kts 187°
2026-05-05 18:46 22.78651 88.46332 1993 ft 194 kts 188°
2026-05-05 18:46 22.77385 88.46183 1977 ft 174 kts 188°
2026-05-05 18:47 22.76217 88.46045 1780 ft 164 kts 188°
2026-05-05 18:47 22.75112 88.45915 1576 ft 156 kts 189°
2026-05-05 18:47 22.74055 88.45790 1382 ft 150 kts 189°
2026-05-05 18:47 22.73026 88.45668 1187 ft 146 kts 188°
2026-05-05 18:48 22.72028 88.45550 1011 ft 148 kts 188°
2026-05-05 18:48 22.71007 88.45431 821 ft 146 kts 188°
2026-05-05 18:48 22.69992 88.45310 654 ft 149 kts 187°
2026-05-05 18:48 22.68969 88.45191 454 ft 146 kts 188°
2026-05-05 18:49 22.67965 88.45072 263 ft 146 kts 187°
2026-05-05 18:49 22.66964 88.44957 61 ft 143 kts 186°
2026-05-05 18:49 22.66049 88.44848 28 ft 109 kts 185°
2026-05-05 18:49 22.65495 88.44785 28 ft 51 kts 186°
2026-05-05 18:50 22.65186 88.44750 27 ft 42 kts 186°
2026-05-05 18:50 22.64921 88.44674 28 ft 36 kts 210°
2026-05-05 18:50 22.64813 88.44597 25 ft 16 kts 214°
2026-05-05 18:50 22.64716 88.44526 28 ft 18 kts 214°
2026-05-05 18:51 22.64660 88.44429 27 ft 16 kts 277°
2026-05-05 18:51 22.64590 88.44358 28 ft 16 kts 185°
2026-05-05 18:51 22.64469 88.44344 28 ft 18 kts 186°
2026-05-05 18:51 22.64336 88.44327 29 ft 20 kts 186°
2026-05-05 18:52 22.64189 88.44310 28 ft 22 kts 186°
2026-05-05 18:52 22.64038 88.44291 28 ft 17 kts 193°
2026-05-05 18:52 22.64012 88.44186 28 ft 17 kts 278°
2026-05-05 18:52 22.64064 88.44129 28 ft 10 kts 355°
2026-05-05 18:53 22.64149 88.44138 28 ft 14 kts
2026-05-05 18:53 22.64259 88.44151 28 ft 13 kts
2026-05-05 18:53 22.64273 88.44151 28 ft 2 kts 348°
2026-05-05 18:53 22.64290 88.44130 28 ft 6 kts 298°
2026-05-05 18:54 22.64297 88.44077 28 ft 8 kts 274°
2026-05-05 18:54 22.64298 88.44060 28 ft 0 kts 275°